Location: Prague
(50.0830°N, 14.4670°E)
Time: 06:22:44
(UTC+01:00)

AO-85 - Visible Passes

Search period start: 26 November 2020 00:00
Search period end: 06 December 2020 00:00
Orbit: 521 x 762 km, 64.8° (Epoch: 12 March)

Date Brightness Start Highest point End Pass type
(mag) Time Alt. Az. Time Alt. Az. Time Alt. Az.
26 Nov ? 03:40:16 18° ENE 03:40:16 18° ENE 03:42:07 10° E visible
26 Nov ? 05:17:52 43° NW 05:19:23 85° NE 05:24:16 10° SE visible
26 Nov ? 06:56:16 10° WNW 06:59:17 17° WSW 07:02:24 10° SSW visible
27 Nov ? 04:04:31 30° ENE 04:04:31 30° ENE 04:07:38 10° ESE visible
27 Nov ? 05:42:08 33° WNW 05:43:47 48° WSW 05:48:30 10° SSE visible
28 Nov ? 04:28:49 51° E 04:28:49 51° E 04:32:43 10° SE visible
28 Nov ? 06:06:27 20° W 06:08:01 24° WSW 06:11:56 10° S visible
29 Nov ? 03:15:36 11° E 03:15:36 11° E 03:15:44 10° E visible
29 Nov ? 04:53:14 55° S 04:53:14 55° S 04:57:16 10° SSE visible
29 Nov ? 06:30:52 11° W 06:32:04 11° WSW 06:33:39 10° SW visible
30 Nov ? 03:40:05 15° ESE 03:40:05 15° ESE 03:41:03 10° ESE visible
30 Nov ? 05:17:44 30° SW 05:17:44 30° SW 05:21:07 10° S visible
01 Dec ? 04:04:39 17° SE 04:04:39 17° SE 04:05:52 10° SE visible
01 Dec ? 05:42:18 15° SW 05:42:18 15° SW 05:43:56 10° SSW visible
02 Dec ? 04:29:18 14° SSE 04:29:18 14° SSE 04:30:05 10° SSE visible
05 Dec ? 18:12:52 10° S 18:14:11 17° SSE 18:14:11 17° SSE visible
